Regional Weather Roundup
Issued by NWS

Home | Current Version | Previous Version | Text Only | Print | Product List | Glossary On
Versions: 1 2 3 4 5 6 7 8 9 10 11 12 13 14 15 16 17 18 19 20 21 22 23 24 25 26 27 28 29 30 31 32 33 34 35 36 37 38 39 40 41 42 43 44 45 46 47 48 49 50
000
ASUS43 KMKX 252320
RWRWI

WISCONSIN REGIONAL WEATHER ROUNDUP
NATIONAL WEATHER SERVICE MILWAUKEE/SULLIVAN WI
600 PM CDT WED APR 25 2018

NOTE: "FAIR" INDICATES FEW OR NO CLOUDS BELOW 12,000 FEET WITH NO
SIGNIFICANT WEATHER AND/OR OBSTRUCTIONS TO VISIBILITY.

WIZ001-002-006>008-014>016-023>028-260000-
NORTHWEST WISCONSIN

CITY           SKY/WX    TMP DP  RH WIND       PRES   REMARKS
SUPERIOR ARPT  FAIR      59  20  21 SW5       29.99F
ASHLAND        FAIR      48  30  49 N6        30.01F
HAYWARD        FAIR      57  21  24 VRB5      30.01F
SIREN          FAIR      57  18  21 SW6       30.02F
CUMBERLAND     FAIR      54  23  30 SW6       30.02F
RICE LAKE      FAIR      55  21  27 SW5       30.04F
CHETEK         FAIR      55  25  32 CALM      30.03F
LADYSMITH      FAIR      56  23  27 W5        30.04S
EAU CLAIRE     FAIR      58  25  28 CALM      30.02F
MENOMONIE      FAIR      59  21  23 W3        30.03F
NEW RICHMOND   FAIR      58  15  19 SW6       30.03F
OSCEOLA        FAIR      59  21  23 W5        30.06F
$$

WIZ003>005-009-010-017-018-260000-
NORTH CENTRAL WISCONSIN

CITY           SKY/WX    TMP DP  RH WIND       PRES   REMARKS
MANITOWISH WTR FAIR      50  20  30 NW6       30.01F
ARBOR VITAE    FAIR      52  19  26 W3        30.01F
WOODRUFF       FAIR      52  19  26 W3        30.01F
RHINELANDER    FAIR      53  19  26 VRB3      30.01F
EAGLE RIVER    FAIR      52  15  23 NW5       30.00F
LAND O LAKES   FAIR      51  15  24 CALM      30.02F
PHILLIPS       FAIR      54  22  28 W3        30.01F
TOMAHAWK       FAIR      54  16  22 N5        30.02F
MEDFORD        FAIR      54  25  33 NW3       30.01F
MERRILL        FAIR      55  21  26 N5        30.01F
$$

WIZ029-030-035-036-043>047-260000-
CENTRAL WISCONSIN

CITY           SKY/WX    TMP DP  RH WIND       PRES   REMARKS
WAUSAU         FAIR      55  22  27 W6        29.99F
MOSINEE        MOSUNNY   54  27  35 W5        30.03F
MARSHFIELD     FAIR      54  28  36 SW3       30.01F
STEVENS POINT  FAIR      53  24  32 W5        30.02F
WAUPACA        FAIR      58  24  26 NW8       30.02F
WAUTOMA        FAIR      56  26  31 NW8       30.03F
WISC RAPIDS    FAIR      56  27  32 NW7       30.04S
CAMP DOUGLAS   MOSUNNY   59  25  27 N5        30.02F
$$

WIZ011>013-019>022-031-037>040-048>050-260000-
NORTHEAST WISCONSIN

CITY           SKY/WX    TMP DP  RH WIND       PRES   REMARKS
ANTIGO         FAIR      53  26  35 NW3       30.01F
SHAWANO        FAIR      58  26  29 NW5       30.00F
OCONTO         FAIR      48  29  47 SE5       30.03F
STURGEON BAY   FAIR      47  29  49 E7        30.04F
GREEN BAY      FAIR      55  33  43 W7        30.02F
MANITOWOC      FAIR      46  30  53 SE8       30.04F
APPLETON       MOSUNNY   54  23  30 NW7       30.01F
CLINTONVILLE   FAIR      56  24  29 CALM      30.01F
OSHKOSH        FAIR      51  32  48 E6        30.02F
$$

WIZ032>034-041-042-053>061-260000-
SOUTHWEST WISCONSIN

CITY           SKY/WX    TMP DP  RH WIND       PRES   REMARKS
LA CROSSE      FAIR      61  28  28 W8        30.02F
SPARTA         FAIR      59  25  27 CALM      30.03F
VIROQUA        FAIR      58  30  34 N6        30.03S
BOSCOBEL       FAIR      64  28  25 VRB5      30.02F
PRAIRIE DU CHI FAIR      61  19  19 NW3       30.02F
PLATTEVILLE    FAIR      62  30  29 N7        30.01F
$$

WIZ056-057-062-063-064-067-068-260000-
SOUTH CENTRAL WISCONSIN

CITY           SKY/WX    TMP DP  RH WIND       PRES   REMARKS
REEDSBURG      FAIR      58  26  29 W5        30.02F
BARABOO/DELLS  FAIR      58  18  21 N5        30.02F
LONE ROCK      FAIR      62  27  26 MISG      30.01F
MINERAL POINT  FAIR      61  23  23 NE3       30.01F
MADISON        FAIR      59  26  28 VRB3      30.01F
MIDDLETON      FAIR      61  23  23 NW9       30.02S
WATERTOWN      FAIR      56  31  39 N8        30.02S
MONROE         FAIR      59  27  29 N7        30.00F
JANESVILLE     MOSUNNY   61  25  25 NE9       30.02S
$$

WIZ051-052-058>065-066-070>072-260000-
SOUTHEAST WISCONSIN

CITY           SKY/WX    TMP DP  RH WIND       PRES   REMARKS
MILWAUKEE      FAIR      44  30  57 NE10      30.06F
WAUKESHA       SUNNY     46  28  49 NE8       30.04F
MILWAUKEE/TIMM SUNNY     46  27  46 E8        30.06S
RACINE         FAIR      44  30  57 NE13G20   30.07F
BURLINGTON     FAIR      49  31  48 E10       30.04S
KENOSHA        FAIR      46  29  51 NE12      30.05F
FOND DU LAC    FAIR      52  31  44 NE8       30.03F
SHEBOYGAN      FAIR      47  32  56 E9        30.04S
WEST BEND      FAIR      50  32  50 E7        30.03S
JUNEAU         FAIR      53  31  42 N6        30.03F
$$

LSZ147-162-260000-
LAKE SUPERIOR

STATION/POSITION TIME  TEMP    WIND        PRES    WAVE
                       AIR SEA DIR/SP/G            HT/PER
                 (UTC) (F)     (DEG/KT/KT) (MB)    (FT/S)
DEVILS ISLAND    2300   46     230/  2/  3 1016.6F
SAXON HARBOR     2240   41      CALM  /  2 1016.6F
$$

LMZ867-665-643>646-260000-
LAKE MICHIGAN

STATION/POSITION TIME  TEMP    WIND        PRES    WAVE
                       AIR SEA DIR/SP/G            HT/PER
                 (UTC) (F)     (DEG/KT/KT) (MB)    (FT/S)
NORTHPORT PIER   2240   42                 1016.9F
KEWAUNEE LAKESHO 2254   42     140/  2/  3 1016.7F
SHEBOYGAN LAKESH 2300   40        CALM     1017.8F
PORT WASHINGTON  2240   42      50/  2/  4 1018.6F
MILWAUKEE LAKESH 2300   40      30/  4/  5   N/A
KENOSHA   LAKESH 2300   40                 1017.9
$$

TC  - TEMPERATURE IN CELSIUS
VSB - VISIBILITY IN STATUTE MILES
WCI - WIND CHILL INDEX
HX  - HEAT INDEX




USA.gov is the U.S. government's official web portal to all federal, state and local government web resources and services.